When you browse on this site, cookies collect data to enhance your experience and personalize the content and advertising you see.
Visit our Privacy Policy to learn more. By continuing to use the site, you agree to this use of cookies and data.
  • In Spain
  • List of Countries
  • For 7 days
  • Water Temperature
  • Weather Map
  • Weather Widgets
  • user-avatar
    Login

    Hourly Weather Karaganda

    Today, 1 June, Monday

    Time Temperature Precipitation Wind Pressure Humidity
    00:00 +23°C° 0 mm 5 mps 709 mmHg 32%
    01:00 +22°C° 0 mm 4 mps 709 mmHg 32%
    02:00 +22°C° 0 mm 4 mps 709 mmHg 33%
    03:00 +21°C° 0 mm 4 mps 708 mmHg 35%
    04:00 +21°C° 0 mm 4 mps 708 mmHg 37%
    05:00 +21°C° 0 mm 4 mps 708 mmHg 38%
    06:00 +23°C° 0 mm 5 mps 709 mmHg 34%
    07:00 +26°C° 0 mm 6 mps 709 mmHg 31%
    08:00 +29°C° 0 mm 7 mps 709 mmHg 27%
    09:00 +30°C° 0 mm 7 mps 709 mmHg 24%
    10:00 +33°C° 0 mm 7 mps 709 mmHg 21%
    11:00 +35°C° 0 mm 8 mps 709 mmHg 16%
    12:00 +36°C° 0 mm 7 mps 709 mmHg 16%
    13:00 +36°C° 0 mm 7 mps 709 mmHg 16%
    14:00 +38°C° 0 mm 6 mps 709 mmHg 16%
    15:00 +36°C° 0 mm 6 mps 709 mmHg 16%
    16:00 +36°C° 0 mm 6 mps 708 mmHg 17%
    17:00 +36°C° 0 mm 5 mps 708 mmHg 17%
    18:00 +32°C° 0 mm 6 mps 708 mmHg 28%
    19:00 +28°C° 0 mm 6 mps 707 mmHg 39%
    20:00 +23°C° 0 mm 7 mps 707 mmHg 50%
    21:00 +22°C° 0.1 mm 5 mps 707 mmHg 55%
    22:00 +21°C° 0.1 mm 4 mps 708 mmHg 61%
    23:00 +20°C° 0.1 mm 2 mps 708 mmHg 66%

    Tomorrow, 2 June, Tuesday

    Time Temperature Precipitation Wind Pressure Humidity
    00:00 +20°C° 0 mm 2 mps 708 mmHg 66%
    01:00 +20°C° 0 mm 2 mps 708 mmHg 66%
    02:00 +19°C° 0 mm 2 mps 708 mmHg 66%
    03:00 +19°C° 0 mm 2 mps 708 mmHg 69%
    04:00 +19°C° 0 mm 2 mps 708 mmHg 72%
    05:00 +19°C° 0 mm 2 mps 708 mmHg 75%
    06:00 +20°C° 0 mm 3 mps 708 mmHg 67%
    07:00 +22°C° 0 mm 3 mps 709 mmHg 60%
    08:00 +25°C° 0 mm 3 mps 709 mmHg 52%
    09:00 +26°C° 0 mm 4 mps 709 mmHg 46%
    10:00 +27°C° 0 mm 4 mps 709 mmHg 40%
    11:00 +28°C° 0 mm 5 mps 710 mmHg 34%
    12:00 +29°C° 0 mm 5 mps 710 mmHg 31%
    13:00 +29°C° 0 mm 6 mps 710 mmHg 28%
    14:00 +30°C° 0 mm 6 mps 710 mmHg 25%
    15:00 +30°C° 0 mm 6 mps 710 mmHg 25%
    16:00 +29°C° 0 mm 6 mps 710 mmHg 26%
    17:00 +29°C° 0 mm 6 mps 710 mmHg 27%
    18:00 +26°C° 0 mm 4 mps 710 mmHg 32%
    19:00 +24°C° 0 mm 3 mps 709 mmHg 37%
    20:00 +21°C° 0 mm 2 mps 709 mmHg 42%
    21:00 +21°C° 0 mm 1 mps 709 mmHg 44%
    22:00 +20°C° 0 mm 1 mps 709 mmHg 45%
    23:00 +19°C° 0 mm 1 mps 709 mmHg 47%

    Day after tomorrow, 3 June, Wednesday

    Time Temperature Precipitation Wind Pressure Humidity
    00:00 +18°C° 0 mm 1 mps 708 mmHg 46%
    01:00 +18°C° 0 mm 1 mps 708 mmHg 46%
    02:00 +18°C° 0 mm 1 mps 708 mmHg 45%
    03:00 +18°C° 0 mm 1 mps 708 mmHg 47%
    04:00 +19°C° 0 mm 1 mps 708 mmHg 49%
    05:00 +19°C° 0 mm 1 mps 708 mmHg 50%
    06:00 +21°C° 0 mm 1 mps 708 mmHg 45%
    07:00 +23°C° 0 mm 2 mps 709 mmHg 39%
    08:00 +26°C° 0 mm 2 mps 709 mmHg 34%
    09:00 +27°C° 0 mm 3 mps 709 mmHg 32%
    10:00 +28°C° 0 mm 3 mps 709 mmHg 31%
    11:00 +29°C° 0 mm 4 mps 709 mmHg 29%
    12:00 +29°C° 0 mm 5 mps 709 mmHg 30%
    13:00 +29°C° 0 mm 7 mps 708 mmHg 31%
    14:00 +29°C° 0 mm 8 mps 708 mmHg 32%
    15:00 +29°C° 0.1 mm 7 mps 708 mmHg 33%
    16:00 +28°C° 0.1 mm 6 mps 708 mmHg 33%
    17:00 +28°C° 0.1 mm 5 mps 708 mmHg 34%
    18:00 +26°C° 0.2 mm 4 mps 708 mmHg 41%
    19:00 +24°C° 0.2 mm 3 mps 708 mmHg 48%
    20:00 +21°C° 0.2 mm 2 mps 708 mmHg 55%
    21:00 +21°C° 0 mm 2 mps 707 mmHg 57%
    22:00 +20°C° 0 mm 2 mps 707 mmHg 59%
    23:00 +19°C° 0 mm 3 mps 707 mmHg 61%

    4 June, Thursday

    Time Temperature Precipitation Wind Pressure Humidity
    00:00 +18°C° 0.1 mm 2 mps 707 mmHg 64%
    01:00 +18°C° 0.1 mm 2 mps 706 mmHg 68%
    02:00 +18°C° 0.1 mm 2 mps 706 mmHg 71%
    03:00 +18°C° 0.4 mm 2 mps 706 mmHg 74%
    04:00 +17°C° 0.4 mm 2 mps 705 mmHg 76%
    05:00 +17°C° 0.4 mm 2 mps 705 mmHg 79%
    06:00 +18°C° 0.4 mm 3 mps 705 mmHg 75%
    07:00 +19°C° 0.4 mm 4 mps 705 mmHg 71%
    08:00 +20°C° 0.4 mm 5 mps 705 mmHg 67%
    09:00 +21°C° 0.1 mm 6 mps 705 mmHg 63%
    10:00 +23°C° 0.1 mm 7 mps 705 mmHg 60%
    11:00 +24°C° 0.1 mm 8 mps 705 mmHg 56%
    12:00 +23°C° 0 mm 9 mps 705 mmHg 57%
    13:00 +23°C° 0 mm 9 mps 705 mmHg 58%
    14:00 +23°C° 0 mm 9 mps 705 mmHg 59%
    15:00 +22°C° 0 mm 9 mps 705 mmHg 60%
    16:00 +21°C° 0 mm 9 mps 705 mmHg 61%
    17:00 +20°C° 0 mm 8 mps 706 mmHg 62%
    18:00 +17°C° 0 mm 8 mps 706 mmHg 64%
    19:00 +15°C° 0 mm 7 mps 707 mmHg 66%
    20:00 +14°C° 0 mm 6 mps 707 mmHg 67%
    21:00 +13°C° 0 mm 6 mps 707 mmHg 68%
    22:00 +12°C° 0 mm 5 mps 707 mmHg 68%
    23:00 +10°C° 0 mm 5 mps 708 mmHg 69%

    5 June, Friday

    Time Temperature Precipitation Wind Pressure Humidity
    00:00 +10°C° 0 mm 5 mps 707 mmHg 67%
    01:00 +10°C° 0 mm 6 mps 707 mmHg 65%
    02:00 +9°C° 0 mm 6 mps 707 mmHg 64%
    03:00 +9°C° 0 mm 6 mps 707 mmHg 61%
    04:00 +9°C° 0 mm 6 mps 707 mmHg 59%
    05:00 +9°C° 0 mm 6 mps 707 mmHg 56%
    06:00 +10°C° 0 mm 7 mps 708 mmHg 53%
    07:00 +11°C° 0 mm 7 mps 708 mmHg 50%
    08:00 +12°C° 0 mm 8 mps 708 mmHg 47%
    09:00 +13°C° 0 mm 8 mps 709 mmHg 45%
    10:00 +15°C° 0 mm 8 mps 709 mmHg 43%
    11:00 +16°C° 0 mm 8 mps 709 mmHg 41%
    12:00 +16°C° 0 mm 8 mps 709 mmHg 39%
    13:00 +17°C° 0 mm 8 mps 709 mmHg 38%
    14:00 +17°C° 0 mm 8 mps 709 mmHg 37%
    15:00 +17°C° 0 mm 8 mps 709 mmHg 36%
    16:00 +17°C° 0 mm 8 mps 709 mmHg 35%
    17:00 +17°C° 0 mm 8 mps 709 mmHg 35%
    18:00 +15°C° 0 mm 7 mps 709 mmHg 37%
    19:00 +14°C° 0 mm 6 mps 710 mmHg 39%
    20:00 +11°C° 0 mm 6 mps 710 mmHg 42%
    21:00 +10°C° 0 mm 5 mps 710 mmHg 43%
    22:00 +10°C° 0 mm 4 mps 710 mmHg 45%
    23:00 +8°C° 0 mm 4 mps 711 mmHg 47%

    6 June, Saturday

    Time Temperature Precipitation Wind Pressure Humidity
    00:00 +8°C° 0 mm 4 mps 711 mmHg 49%
    01:00 +8°C° 0 mm 3 mps 711 mmHg 51%
    02:00 +7°C° 0 mm 3 mps 712 mmHg 53%
    03:00 +7°C° 0 mm 3 mps 712 mmHg 55%
    04:00 +7°C° 0 mm 2 mps 712 mmHg 57%
    05:00 +7°C° 0 mm 2 mps 712 mmHg 60%
    06:00 +9°C° 0 mm 3 mps 713 mmHg 54%
    07:00 +11°C° 0 mm 4 mps 713 mmHg 48%
    08:00 +13°C° 0 mm 4 mps 714 mmHg 42%
    09:00 +15°C° 0 mm 4 mps 714 mmHg 39%
    10:00 +17°C° 0 mm 4 mps 714 mmHg 37%
    11:00 +18°C° 0 mm 4 mps 714 mmHg 35%
    12:00 +19°C° 0 mm 4 mps 714 mmHg 35%
    13:00 +20°C° 0 mm 4 mps 714 mmHg 35%
    14:00 +20°C° 0 mm 4 mps 714 mmHg 35%
    15:00 +20°C° 0 mm 5 mps 714 mmHg 37%
    16:00 +20°C° 0 mm 5 mps 713 mmHg 38%
    17:00 +20°C° 0 mm 5 mps 713 mmHg 40%
    18:00 +17°C° 0 mm 5 mps 713 mmHg 45%
    19:00 +17°C° 0 mm 4 mps 713 mmHg 51%
    20:00 +14°C° 0 mm 3 mps 713 mmHg 57%
    21:00 +13°C° 0 mm 3 mps 713 mmHg 58%
    22:00 +13°C° 0 mm 2 mps 713 mmHg 60%
    23:00 +12°C° 0 mm 2 mps 713 mmHg 62%
    Show more